STARLINK-3501, 51748

Orbit data source: Space-Track

STARLINK-3501, 51748 is a payload satellite owned by SpaceX/Seattle (US) in LEO that was launched on Mon, 21 Feb 2022 UTC via an FALCON 9 launch vehicle from the Air Force Eastern Test Range (AFETR). Payload-class satellites include a variety of spacecraft equipped with specific instruments for various scientific and technological missions. These include communications satellites like Starlink; space stations such as the ISS; scientific satellites like the Hubble; Earth observation satellites from companies like Planet Labs, Umbra, and HawkEye 360; GPS; miniature CubeSats for education and research; and military/defense satellites.

Loading next visibility...
Identifier
51748, 2022-016AL
Orbit
LEO
Country
Flag of USUS
Related business
Manufacturer
SpaceX/Seattle
Mission
Operational Commercial Communications
Bus & Motor
STARLINK, Unknown motor
Mass
297 kg wet, ~275 kg dry
Launch date (UTC)
2022-02-21 (4 years ago)
Launch vehicle
FALCON 9
Launch site
Air Force Eastern Test Range (AFETR)
Object type
Payload
Rocket body
Debris
Shape & HBR
Box + 1 Pan, 10.1 m
Radar Cross Section
13.562 m², Large (>1 m²)

Expand to show TLE details & history
Last TLE update: 2 days ago

TLE from 2 days ago
0 STARLINK-3501
1 51748U 22016AL  26171.38033183  .00002156  00000-0  15343-3 0  9995
2 51748  53.1570 208.0073 0000825  61.2896 298.8178 15.08855582239201
Epoch: 2026-06-20T09:07Z
TLE epoch observation values (Epoch: 2026-06-20T09:07:40.670Z)
Latitude
-0.00002°
Longitude
162.49204°
Altitude
540.312 km
Speed
7.594 km/s
True Right ascension
13h 52m 01s
True Declination
0° 00' 00"
Sunlit
Object was in full shadow at epoch
Visualization orbit readout
Latitude
Unknown
Longitude
Unknown
Altitude
Unknown
Speed
Unknown
Apparent Right ascension
Unknown
Apparent Declination
Unknown
Sunlit
N/A
Visualization observer readout
Local Sidereal Time
21:31:05
Azimuth
Unknown
Elevation
Unknown
Doppler factor
Unknown
Orbital elements
Apogee altitude
540.521 km
Perigee altitude
539.38 km
Semi-major axis
6,918.087 km
Eccentricity
0.00008
Inclination
53.157°
RAAN
208.0073°
Arg. of periapsis
61.2896°
True anomaly
298.80952°
Mean anomaly
298.8178°
Eccentric anomaly
298.81366°
Mean motion
3.77193 °/min
Orbital period
95.44 mins
BSTAR
0.00015343
Loading maneuver chart data...
Computing Atmospheric mass density...
Loading historical data...
Loading historical data...
Loading historical data...
Loading historical data...
Loading historical data...
Loading historical data...
Loading historical data...

Documentation

Showing up to 5 results
|